Weather Roundup
Issued by NWS Chicago, IL

Home | Current Version | Previous Version | Graphics & Text | Print | Product List | Glossary On
Versions: 1 2 3 4 5 6 7 8 9 10 11 12 13 14 15 16 17 18 19 20 21 22 23 24 25 26 27 28 29 30 31 32 33 34 35 36 37 38 39 40 41 42 43 44 45 46 47 48 49 50
000
NZUS59 KLOT 220810
HRRLOT

CHICAGO AREA WEATHER ROUNDUP
NATIONAL WEATHER SERVICE CHICAGO/ROMEOVILLE IL
300 AM CDT MON SEP 22 2014

NOTE: "FAIR" INDICATES FEW OR NO CLOUDS BELOW 12,000 FEET WITH NO
SIGNIFICANT WEATHER AND/OR OBSTRUCTIONS TO VISIBILITY.

* THESE STATIONS ARE NOT UNDER NWS QUALITY CONTROL. THEY ALSO MAY NOT
  REPORT WEATHER SUCH AS PRECIPITATION OR FOG.

ILZ005-006-012>014-019>023-220900-
NORTHEAST ILLINOIS

CITY           SKY/WX    TMP DP  RH WIND       PRES   REMARKS
OHARE          PTCLDY    49  42  77 N8        30.18R
MIDWAY         PTCLDY    51  45  79 NW7       30.17R
AURORA         CLEAR     44  40  85 NW5       30.20R
LANSING*       MOCLDY    54  44  68 NE10G18   30.16S
JOLIET*        CLEAR     47  43  84 CALM      30.19S
WAUKEGAN       PTCLDY    44  40  85 NW5       30.18R
DUPAGE AIRPORT CLEAR     44  41  89 N6        30.18R
WHEELING       CLEAR     47  42  83 NW5       30.19R
KANKAKEE*      CLEAR     49  44  84 NW5       30.18R
MORRIS*        CLEAR     47  45  93 CALM      30.18S
LEWIS AIRPORT* CLEAR     47  44  90 N3        30.18S
NORTHERLY IS     N/A     55  44  66 N12         N/A
$$

WIZ051-052-058>065-066-070>072-220900-
SOUTHEAST WISCONSIN

CITY           SKY/WX    TMP DP  RH WIND       PRES   REMARKS
MILWAUKEE      CLEAR     46  39  76 NW5       30.18F
KENOSHA*       CLEAR     45  41  86 N6        30.19S
RACINE*        CLEAR     45  41  86 NW7       30.20R
BURLINGTON     CLEAR     35  34  97 CALM      30.19S
WAUKESHA       CLEAR     37  36  93 CALM      30.19F
WEST BEND      CLEAR     37  36  93 CALM      30.18S
$$

INZ001>003-010>013-019-020-220900-
NORTHWEST INDIANA

CITY           SKY/WX    TMP DP  RH WIND       PRES   REMARKS
GARY*          MOCLDY    56  44  64 N9G18     30.17R
MICHIGAN CITY* NOT AVBL
RENSSELAER*    NOT AVBL
VALPARAISO     MOCLDY    51  43  74 N5        30.15S
$$

LMZ740>746-220900-
SOUTHERN LAKE MICHIGAN

STATION/POSITION TIME  SKY/WX   TEMP WIND        PRES    VSBY
                                AIR  DIR/SP/G
                 (UTC)          (F)  (DEG/KT/KT) (MB)    (MI)
HARRISON CRIB    0800            55   10/ 18/ 22   N/A
BURNHAM HARBOR   0800            54  350/ 13/ 15   N/A
CALUMET HARBOR   0800            55   10/ 10/ 15 1020.2F
BURNS HARBOR     NOT AVBL
MICHIGAN CITY    0800            54  360/ 21/ 28   N/A
$$

ABBREVIATIONS USED IN REMARKS
   TC - TEMPERATURE IN CELSIUS
  WCI - WIND CHILL INDEX
   HX - HEAT INDEX
  VSB - VISIBILITY
$$


USA.gov is the U.S. government's official web portal to all federal, state and local government web resources and services.